[[{"header":{"parameterUnit":"m.s-1","parameterCategory":1,"la1":30.2991,"la2":30.254,"lo1":-89.0895,"lo2":-89.0444,"dy":0.0017,"dx":0.0017,"nx":28,"ny":28,"refTime":"2023-08-01T03:00:00:Z","depth":0,"parameterNumber":2,"parameterNumberName":"U-component_of_WINDS"},"data":[0,0,0,0,0,0,0,0,0,0,0,0,0,0,0,0,0,0,0,0,0,0,0,0,0,0,0,0,0,0,0,0,0,0,0,0,0,0,0,0,0,0,0,0,0,0,0,0,0,0,0,0,0,0,0,0,0,0,-0.6507,-0.6506,0,-0.6447,-0.6446,-0.6445,-0.6431,-0.6432,-0.6432,-0.6433,-0.6369,-0.6366,-0.6364,0,0,0,0,0,0,0,0,0,0,0,0,0,-0.661,-0.6608,-0.6507,-0.6506,-0.6506,-0.6447,-0.6446,-0.6445,-0.6431,-0.6432,-0.6432,-0.6433,-0.6369,-0.6367,-0.6364,0,0,0,0,0,0,0,0,0,0,0,0,0,-0.6559,-0.6608,-0.6507,-0.6492,-0.649,-0.6447,-0.6446,-0.6445,-0.6431,-0.6432,-0.6433,-0.6433,-0.637,-0.6367,-0.6364,-0.6332,0,0,-0.6354,-0.6353,0,0,0,0,0,0,0,0,-0.6562,-0.6555,-0.6495,-0.6493,-0.649,-0.6447,-0.6459,-0.6407,-0.6431,-0.6453,-0.6433,-0.6433,-0.6394,-0.6389,-0.6376,-0.6329,-0.6326,-0.6354,-0.6352,-0.6351,-0.635,0,0,0,0,0,0,0,-0.6566,-0.6558,-0.6483,-0.6494,-0.6491,-0.6488,-0.6481,-0.6449,-0.6421,-0.6452,-0.645,-0.6444,-0.6393,-0.6379,-0.6375,-0.6325,-0.6354,-0.6351,-0.6349,-0.6348,-0.625,-0.6249,0,0,0,0,0,0,-0.6572,-0.6561,-0.6485,-0.6481,-0.6529,-0.6485,-0.6478,-0.646,-0.6421,-0.6416,-0.6443,-0.6443,-0.6384,-0.6378,-0.6372,-0.6333,-0.6351,-0.6348,-0.6346,-0.6251,-0.625,-0.6249,0,0,0,0,0,0,-0.6574,-0.6565,-0.6487,-0.6521,-0.6511,-0.6483,-0.6463,-0.6459,-0.6445,-0.6415,-0.641,-0.6434,-0.6385,-0.6377,-0.6342,-0.6331,-0.6346,-0.6343,-0.6252,-0.6251,-0.625,-0.6254,0,0,0,0,0,0,-0.6577,-0.6566,-0.6554,-0.6521,-0.6509,-0.6459,-0.6463,-0.6457,-0.644,-0.644,-0.6405,-0.64,-0.6385,-0.6347,-0.6339,-0.6326,-0.6341,-0.6252,-0.6251,-0.625,-0.6254,-0.6253,-0.6251,0,0,0,0,0,-0.6581,-0.6556,-0.6553,-0.6544,-0.6493,-0.6458,-0.6451,-0.6435,-0.6439,-0.6426,-0.6407,-0.6401,-0.6334,-0.6344,-0.6335,-0.6321,-0.6253,-0.6252,-0.625,-0.6255,-0.6253,-0.6252,0,0,0,0,0,0,-0.6587,-0.6551,-0.6547,-0.6511,-0.6488,-0.6456,-0.6439,-0.6433,-0.6407,-0.6407,-0.6387,-0.638,-0.6347,-0.6331,-0.6343,-0.6289,-0.6293,-0.629,-0.63,-0.6298,-0.6297,-0.6301,-0.6338,0,0,0,0,0,-0.6584,-0.6559,-0.653,-0.6501,-0.6489,-0.6466,-0.6451,-0.644,-0.6415,-0.6405,-0.6383,-0.6358,-0.6332,-0.6314,-0.6288,-0.6253,-0.6245,-0.6239,-0.6237,-0.6236,-0.6233,-0.6215,-0.6212,-0.6244,-0.6244,-0.6244,0,0,-0.6578,-0.6555,-0.6541,-0.6501,-0.6482,-0.6457,-0.6458,-0.6431,-0.6412,-0.64,-0.6367,-0.6351,-0.6322,-0.6287,-0.6271,-0.6272,-0.6223,-0.6234,-0.6234,-0.6231,-0.6213,-0.621,-0.6207,-0.6243,-0.6243,-0.6243,0,0,-0.6553,-0.6534,-0.6508,-0.649,-0.6461,-0.6446,-0.6441,-0.641,-0.6399,-0.6366,-0.6357,-0.6334,-0.6288,-0.6269,-0.6253,-0.6225,-0.6218,-0.6217,-0.6208,-0.6191,-0.6188,-0.6186,-0.6177,-0.6173,-0.6214,-0.6214,-0.6214,0,-0.6549,-0.6511,-0.6496,-0.647,-0.6453,-0.6443,-0.6417,-0.64,-0.6364,-0.6353,-0.6355,-0.6299,-0.6279,-0.6241,-0.6234,-0.6221,-0.6214,-0.622,-0.619,-0.6188,-0.6185,-0.6176,-0.6172,-0.6214,-0.6214,-0.6214,-0.6214,0,-0.6507,-0.6481,-0.6464,-0.6431,-0.6413,-0.6387,-0.6368,-0.6352,-0.6344,-0.6329,-0.6296,-0.6272,-0.6242,-0.6232,-0.6223,-0.6193,-0.6195,-0.6194,-0.6198,-0.6182,-0.6173,-0.617,-0.6214,-0.6214,-0.6214,-0.6214,0,0,-0.6483,-0.6444,-0.6438,-0.6424,-0.6393,-0.6372,-0.6347,-0.6318,-0.6305,-0.6281,-0.6259,-0.6223,-0.6223,-0.6204,-0.6194,-0.6178,-0.6159,-0.618,-0.6179,-0.6177,-0.6125,-0.6126,-0.6122,-0.6155,-0.6154,-0.6154,-0.6128,0,-0.6455,-0.6409,-0.6396,-0.6358,-0.6335,-0.6326,-0.6304,-0.6283,-0.6269,-0.6247,-0.6232,-0.6207,-0.6208,-0.6197,-0.6182,-0.6164,-0.6148,-0.6166,-0.6135,-0.6134,-0.6142,-0.6117,-0.6117,-0.6094,-0.6124,-0.6124,-0.6123,0,-0.6415,-0.6393,-0.6353,-0.6327,-0.6316,-0.6297,-0.6271,-0.625,-0.6227,-0.6218,-0.6199,-0.6191,-0.6164,-0.6171,-0.6135,-0.6148,-0.6135,-0.6125,-0.6123,-0.6119,-0.6127,-0.6112,-0.6086,-0.6082,-0.6117,-0.6118,-0.6118,0,-0.6402,-0.6362,-0.6333,-0.6321,-0.629,-0.6276,-0.6263,-0.624,-0.6225,-0.6202,-0.6192,-0.6166,-0.6152,-0.6132,-0.6117,-0.6123,-0.6083,-0.6088,-0.6075,-0.6075,-0.6065,-0.6066,-0.6036,-0.6058,-0.6058,-0.6058,-0.6058,0,-0.6372,-0.6348,-0.6327,-0.6309,-0.6282,-0.6268,-0.6242,-0.6228,-0.6208,-0.6188,-0.6179,-0.616,-0.6141,-0.612,-0.6108,-0.6081,-0.6074,-0.6067,-0.6064,-0.6067,-0.6068,-0.6057,-0.6058,-0.6057,-0.6057,-0.6057,-0.6058,0,-0.6352,-0.6337,-0.6305,-0.6279,-0.6272,-0.6254,-0.6232,-0.6214,-0.6202,-0.6176,-0.6169,-0.6148,-0.6123,-0.6107,-0.6074,-0.6066,-0.6037,-0.6034,-0.6045,-0.6043,-0.6031,-0.6032,-0.5993,-0.5987,-0.6013,-0.6012,-0.6012,0,-0.6334,-0.6315,-0.6288,-0.6274,-0.6261,-0.6239,-0.6224,-0.6209,-0.6194,-0.6167,-0.6153,-0.6128,-0.6107,-0.6067,-0.6049,-0.6025,-0.6022,-0.601,-0.6018,-0.6022,-0.6022,-0.6023,-0.6021,-0.6008,-0.6008,-0.6007,-0.6007,0,-0.6303,-0.6297,-0.6275,-0.6252,-0.6234,-0.6215,-0.6195,-0.6184,-0.6167,-0.615,-0.6125,-0.6109,-0.6077,-0.6052,-0.6027,-0.6013,-0.6007,-0.6005,-0.6001,-0.6004,-0.6011,-0.6007,-0.6041,-0.6006,-0.6006,-0.6006,-0.6006,-0.6006,-0.6283,-0.6267,-0.6246,-0.6223,-0.6207,-0.619,-0.6173,-0.6159,-0.6138,-0.6111,-0.6104,-0.6078,-0.6057,-0.6023,-0.6009,-0.5988,-0.599,-0.5983,-0.5981,-0.598,-0.598,-0.6015,-0.5984,-0.5984,-0.5984,-0.5984,-0.5984,0,-0.6252,-0.6239,-0.6218,-0.6192,-0.6174,-0.6172,-0.6151,-0.6136,-0.6114,-0.6095,-0.6075,-0.6047,-0.6024,-0.6005,-0.5981,-0.5968,-0.5965,-0.5962,-0.5963,-0.596,-0.598,-0.5986,-0.5965,-0.5965,-0.5965,-0.5965,-0.5965,-0.5965,-0.6234,-0.6207,-0.6199,-0.6164,-0.6151,-0.6126,-0.6115,-0.6099,-0.6084,-0.6054,-0.6034,-0.6023,-0.6004,-0.598,-0.5958,-0.5954,-0.5945,-0.5943,-0.5937,-0.5956,-0.5958,-0.596,-0.5966,-0.5941,-0.5941,-0.5919,-0.5919,-0.5918]},{"header":{"parameterUnit":"m.s-1","parameterCategory":1,"la1":30.2991,"la2":30.254,"lo1":-89.0895,"lo2":-89.0444,"dy":0.0017,"dx":0.0017,"nx":28,"ny":28,"refTime":"2023-08-01T03:00:00:Z","depth":0,"parameterNumber":3,"parameterNumberName":"V-component_of_WINDS"},"data":[0,0,0,0,0,0,0,0,0,0,0,0,0,0,0,0,0,0,0,0,0,0,0,0,0,0,0,0,0,0,0,0,0,0,0,0,0,0,0,0,0,0,0,0,0,0,0,0,0,0,0,0,0,0,0,0,0,0,3.6391,3.639,0,3.6363,3.6363,3.6363,3.6383,3.6383,3.6384,3.6385,3.6351,3.6349,3.6347,0,0,0,0,0,0,0,0,0,0,0,0,0,3.6455,3.6454,3.6391,3.639,3.639,3.6363,3.6363,3.6362,3.6382,3.6383,3.6385,3.6386,3.6351,3.6349,3.6347,0,0,0,0,0,0,0,0,0,0,0,0,0,3.6427,3.6453,3.6391,3.6397,3.6397,3.6363,3.6363,3.6362,3.6382,3.6383,3.6385,3.6386,3.6352,3.6349,3.6347,3.6303,0,0,3.6339,3.6337,0,0,0,0,0,0,0,0,3.6429,3.6425,3.6396,3.6396,3.6397,3.6378,3.6373,3.6342,3.6382,3.6388,3.6385,3.6387,3.6358,3.6355,3.6347,3.6302,3.63,3.6338,3.6337,3.6336,3.6335,0,0,0,0,0,0,0,3.6431,3.6426,3.638,3.6396,3.6396,3.6399,3.6397,3.6367,3.6365,3.6387,3.6389,3.6385,3.6358,3.6349,3.6346,3.63,3.6338,3.6336,3.6334,3.6333,3.6216,3.6215,0,0,0,0,0,0,3.6433,3.6427,3.6381,3.6379,3.6417,3.6397,3.6394,3.6382,3.6366,3.6365,3.6384,3.6386,3.6353,3.6349,3.6345,3.6292,3.6336,3.6333,3.6332,3.6218,3.6216,3.6214,0,0,0,0,0,0,3.6434,3.6428,3.6382,3.6404,3.6398,3.6394,3.6381,3.6381,3.6372,3.6364,3.6363,3.6376,3.6354,3.6349,3.6314,3.6291,3.6332,3.633,3.622,3.6217,3.6215,3.6186,0,0,0,0,0,0,3.6436,3.6429,3.6413,3.6403,3.6397,3.6352,3.638,3.638,3.6368,3.6371,3.6355,3.6354,3.6355,3.6318,3.6311,3.6288,3.6327,3.6222,3.6219,3.6216,3.6189,3.6183,3.6178,0,0,0,0,0,3.6438,3.6405,3.6413,3.6407,3.6378,3.6351,3.6347,3.635,3.6366,3.635,3.6345,3.6354,3.6295,3.6314,3.6307,3.6282,3.6223,3.6219,3.6216,3.6191,3.6184,3.6178,0,0,0,0,0,0,3.641,3.6404,3.6412,3.6375,3.6364,3.6355,3.6334,3.6343,3.6325,3.6328,3.6331,3.6327,3.629,3.6283,3.6304,3.6239,3.6261,3.6256,3.6245,3.6238,3.6232,3.6234,3.6325,0,0,0,0,0,3.6401,3.6382,3.6376,3.6344,3.6338,3.6337,3.6326,3.6329,3.6317,3.6311,3.6304,3.6289,3.6267,3.6253,3.6232,3.6189,3.6184,3.6169,3.6163,3.6159,3.6153,3.6128,3.6121,3.6203,3.6203,3.6203,0,0,3.6379,3.6373,3.636,3.6338,3.633,3.6308,3.6333,3.6309,3.6292,3.6307,3.6274,3.6268,3.6252,3.6212,3.6194,3.6205,3.613,3.6154,3.6151,3.6148,3.6124,3.6116,3.6109,3.6201,3.6201,3.6202,0,0,3.6328,3.6323,3.6295,3.6286,3.6274,3.6274,3.6268,3.6257,3.6254,3.6222,3.6232,3.6212,3.6174,3.6162,3.6151,3.6097,3.6104,3.609,3.606,3.6036,3.6029,3.6023,3.6002,3.5994,3.6085,3.6085,3.6085,0,3.6302,3.6271,3.6279,3.6254,3.6243,3.6259,3.623,3.622,3.6201,3.6192,3.6206,3.6159,3.615,3.6107,3.6094,3.6085,3.6075,3.609,3.603,3.6024,3.6019,3.5998,3.599,3.6083,3.6084,3.6084,3.6084,0,3.6239,3.6217,3.6196,3.6179,3.6166,3.6139,3.6141,3.6127,3.6132,3.613,3.6095,3.6085,3.6062,3.6053,3.6057,3.601,3.6017,3.603,3.6052,3.6009,3.599,3.5982,3.6081,3.6081,3.6082,3.6082,0,0,3.6167,3.6157,3.6148,3.6141,3.6129,3.6111,3.6085,3.6065,3.6051,3.6038,3.6014,3.5983,3.5995,3.5982,3.5985,3.5964,3.592,3.598,3.5979,3.5967,3.5865,3.5854,3.5845,3.5926,3.5924,3.5923,3.5866,0,3.6114,3.607,3.6076,3.6032,3.6011,3.6026,3.6003,3.5992,3.5989,3.597,3.5967,3.5944,3.5963,3.5955,3.5935,3.5929,3.5899,3.5934,3.5901,3.5899,3.5902,3.5835,3.5823,3.5769,3.5858,3.5857,3.5856,0,3.6046,3.6032,3.5986,3.5978,3.5969,3.5948,3.593,3.5912,3.59,3.5899,3.5886,3.5893,3.5864,3.5889,3.5848,3.5871,3.5858,3.5854,3.5852,3.5846,3.5873,3.5825,3.5752,3.5742,3.5845,3.5846,3.5847,0,3.5996,3.5966,3.5934,3.5927,3.5917,3.5902,3.5896,3.5886,3.5873,3.5857,3.5848,3.5828,3.5816,3.58,3.58,3.5819,3.5758,3.5783,3.5754,3.5754,3.5738,3.5739,3.5659,3.5734,3.5734,3.5735,3.5735,0,3.5934,3.5905,3.5912,3.5892,3.5859,3.5867,3.5834,3.583,3.5821,3.5799,3.5811,3.579,3.5793,3.5772,3.5772,3.5737,3.5732,3.5729,3.5729,3.5726,3.5726,3.5716,3.5718,3.5732,3.5733,3.5733,3.5734,0,3.5871,3.5875,3.5842,3.5835,3.5833,3.5809,3.5803,3.5783,3.5783,3.5755,3.5749,3.5747,3.5722,3.5722,3.5693,3.5694,3.565,3.5655,3.5654,3.5654,3.5625,3.5627,3.5533,3.552,3.5607,3.5606,3.5605,0,3.5831,3.5809,3.5801,3.5789,3.5783,3.5762,3.575,3.5756,3.5743,3.5727,3.5709,3.5686,3.5668,3.5627,3.5622,3.56,3.5603,3.5572,3.5599,3.5597,3.5599,3.56,3.5596,3.5565,3.5564,3.5564,3.5563,0,3.5757,3.5761,3.5743,3.5727,3.5712,3.5699,3.5687,3.5675,3.568,3.5664,3.564,3.5626,3.5598,3.5574,3.5553,3.5545,3.5553,3.5555,3.5547,3.5542,3.5542,3.5539,3.5637,3.5556,3.5557,3.5557,3.5558,3.5558,3.5703,3.5684,3.5675,3.5655,3.5648,3.5636,3.5617,3.5615,3.5596,3.5575,3.558,3.5552,3.554,3.5512,3.5503,3.548,3.5491,3.5479,3.5476,3.5472,3.5468,3.5548,3.5477,3.5477,3.5477,3.5477,3.5477,0,3.5628,3.5624,3.5606,3.5589,3.5573,3.5587,3.5574,3.5559,3.5535,3.5524,3.5506,3.5478,3.5455,3.5449,3.5426,3.5409,3.5412,3.5402,3.5402,3.54,3.5461,3.5469,3.54,3.54,3.54,3.54,3.54,3.54,3.5587,3.5555,3.5557,3.5521,3.5517,3.5491,3.5482,3.5471,3.5462,3.5431,3.5413,3.541,3.54,3.5377,3.5356,3.5354,3.5344,3.5332,3.5332,3.5388,3.5396,3.5403,3.5411,3.533,3.533,3.5272,3.5272,3.5271]}]]